Date String (YYYY-MM-DD hh:mm:ss) UTC,Instrument flags,absolute air pressure of the measurement (hPa),sample flow rate (lpm),inlet stack bypass flow (lpm),air temperature of the measurement (°C),ambient temperature measured by the external sensor (°C),aerosol sample conditioner tube jacket temperature (°C),OPC LED temperature (°C),internal box temperature (°C),relative humidity of the measurement (%),span deviation,mass concentration of particles derived from Lorenz-Mie calculation of OPC scattering (μg/m³),mass concentration of particles derived from Lorenz-Mie calculation of OPC scattering (μg/m³),mass concentration of particles derived from Lorenz-Mie calculation of OPC scattering (μg/m³)
DateTimeUTC,F1_M11,P_M11,Q1_M11,Q2_M11,T1_M11,T2_M11,T3_M11,T4_M11,T5_M11,U1_M11,ZSPAN_M11,X2_M11,X0_M11,X1_M11
2023-10-13 02:00:00,SystemResetWarning,0823.2,4.99,000.00,028.2,026.6,000.0,036.7,029.8,14.7,0000.0,0000.38,0001.08,0000.14
2023-10-13 02:01:00,SystemResetWarning,0823.2,4.99,000.00,028.2,026.6,000.0,036.7,029.7,14.7,0000.0,0000.38,0001.14,0000.14
2023-10-13 02:02:00,SystemResetWarning,0823.3,5.00,000.00,028.2,026.6,000.0,036.7,029.8,14.7,0000.0,0000.39,0001.17,0000.14
2023-10-13 02:03:00,SystemResetWarning,0823.3,5.00,000.00,028.2,026.6,000.0,036.7,029.8,14.8,0000.0,0000.40,0001.30,0000.14
2023-10-13 02:04:00,SystemResetWarning,0823.3,5.00,000.00,028.2,026.6,000.0,036.7,029.8,14.8,0000.0,0000.40,0001.27,0000.14
2023-10-13 02:05:00,SystemResetWarning,0823.3,5.00,000.00,028.2,026.6,000.0,036.6,029.8,14.8,0000.0,0000.37,0001.26,0000.14
2023-10-13 02:06:00,SystemResetWarning,0823.3,5.00,000.00,028.2,026.6,000.0,036.6,029.8,14.7,0000.0,0000.35,0002.16,0000.13
2023-10-13 02:07:00,SystemResetWarning,0823.3,5.00,000.00,028.2,026.6,000.0,036.6,029.8,14.8,0000.0,0000.36,0002.13,0000.14
2023-10-13 02:08:00,SystemResetWarning,0823.4,5.00,000.00,028.2,026.6,000.0,036.6,029.8,14.8,0000.0,0000.38,0002.11,0000.14
2023-10-13 02:09:00,SystemResetWarning,0823.4,5.00,000.00,028.2,026.6,000.0,036.6,029.8,14.8,0000.0,0000.39,0002.22,0000.14
2023-10-13 02:10:00,SystemResetWarning,0823.5,5.00,000.00,028.2,026.6,000.0,036.6,029.8,14.9,0000.0,0000.38,0002.27,0000.13
2023-10-13 02:11:00,SystemResetWarning,0823.5,5.01,000.00,028.2,026.6,000.0,036.6,029.8,14.9,0000.0,0000.37,0002.22,0000.14
2023-10-13 02:12:00,SystemResetWarning,0823.5,5.00,000.00,028.2,026.6,000.0,036.6,029.8,14.9,0000.0,0000.39,0003.15,0000.14
2023-10-13 02:13:00,SystemResetWarning,0823.5,4.99,000.00,028.2,026.6,000.0,036.6,029.8,15.0,0000.0,0000.42,0004.22,0000.13
2023-10-13 02:14:00,SystemResetWarning,0823.5,4.99,000.00,028.2,026.6,000.0,036.6,029.8,15.0,0000.0,0000.45,0004.23,0000.13
2023-10-13 02:15:00,SystemResetWarning,0823.5,5.00,000.00,028.1,026.6,000.0,036.6,029.8,15.1,0000.0,0000.47,0004.31,0000.13
2023-10-13 02:16:00,SystemResetWarning,0823.6,4.99,000.00,028.1,026.6,000.0,036.6,029.8,15.1,0000.0,0000.49,0004.38,0000.13
2023-10-13 02:17:00,SystemResetWarning,0823.7,5.00,000.00,028.1,026.6,000.0,036.6,029.8,15.1,0000.0,0000.52,0003.70,0000.14
2023-10-13 02:18:00,SystemResetWarning,0823.7,5.00,000.00,028.1,026.6,000.0,036.6,029.8,15.1,0000.0,0000.53,0003.61,0000.15
2023-10-13 02:19:00,SystemResetWarning,0823.8,5.00,000.00,028.1,026.6,000.0,036.6,029.8,15.1,0000.0,0000.52,0003.58,0000.15
2023-10-13 02:20:00,SystemResetWarning,0823.8,5.00,000.00,028.1,026.6,000.0,036.6,029.8,15.1,0000.0,0000.50,0004.28,0000.15
2023-10-13 02:21:00,SystemResetWarning,0823.8,5.00,000.00,028.1,026.6,000.0,036.6,029.8,15.1,0000.0,0000.54,0007.21,0000.16
2023-10-13 02:22:00,SystemResetWarning,0823.8,5.00,000.00,028.1,026.6,000.0,036.6,029.8,15.2,0000.0,0000.58,0007.61,0000.16
2023-10-13 02:23:00,SystemResetWarning,0823.8,5.00,000.00,028.1,026.6,000.0,036.6,029.8,15.2,0000.0,0000.62,0007.85,0000.16
2023-10-13 02:24:00,SystemResetWarning,0823.9,5.00,000.00,028.1,026.6,000.0,036.6,029.8,15.2,0000.0,0000.68,0007.53,0000.17
2023-10-13 02:25:00,SystemResetWarning,0823.9,5.00,000.00,028.1,026.6,000.0,036.6,029.8,15.2,0000.0,0000.66,0007.90,0000.17
2023-10-13 02:26:00,SystemResetWarning,0823.9,5.00,000.00,028.1,026.6,000.0,036.6,029.8,15.2,0000.0,0000.69,0008.14,0000.18
2023-10-13 02:27:00,SystemResetWarning,0824.0,5.00,000.00,028.1,026.5,000.0,036.6,029.8,15.3,0000.0,0000.74,0008.27,0000.18
2023-10-13 02:28:00,SystemResetWarning,0824.0,5.00,000.00,028.1,026.5,000.0,036.6,029.7,15.3,0000.0,0000.82,0008.33,0000.19
2023-10-13 02:29:00,SystemResetWarning,0823.9,5.00,000.00,028.1,026.5,000.0,036.6,029.7,15.3,0000.0,0000.87,0008.95,0000.19
2023-10-13 02:30:00,SystemResetWarning,0824.0,4.99,000.00,028.1,026.5,000.0,036.6,029.7,15.4,0000.0,0000.91,0009.39,0000.18
2023-10-13 02:31:00,SystemResetWarning,0824.0,5.00,000.00,028.1,026.5,000.0,036.6,029.7,15.4,0000.0,0000.93,0009.35,0000.17
2023-10-13 02:32:00,SystemResetWarning,0824.0,5.00,000.00,028.1,026.5,000.0,036.6,029.7,15.4,0000.0,0001.02,0009.24,0000.17
2023-10-13 02:33:00,SystemResetWarning,0824.0,5.00,000.00,028.1,026.5,000.0,036.6,029.7,15.4,0000.0,0001.02,0009.36,0000.16
2023-10-13 02:34:00,SystemResetWarning,0824.1,5.00,000.00,028.1,026.5,000.0,036.6,029.7,15.5,0000.0,0000.98,0009.06,0000.16
2023-10-13 02:35:00,SystemResetWarning,0824.2,5.00,000.00,028.1,026.5,000.0,036.6,029.7,15.5,0000.0,0000.94,0008.68,0000.15
2023-10-13 02:36:00,SystemResetWarning,0824.2,5.00,000.00,028.1,026.5,000.0,036.5,029.7,15.5,0000.0,0000.95,0008.35,0000.15
2023-10-13 02:37:00,SystemResetWarning,0824.3,5.00,000.00,028.1,026.5,000.0,036.5,029.7,15.5,0000.0,0000.93,0008.25,0000.15
2023-10-13 02:38:00,SystemResetWarning,0824.3,5.00,000.00,028.1,026.5,000.0,036.5,029.7,15.5,0000.0,0000.88,0008.13,0000.14
2023-10-13 02:39:00,SystemResetWarning,0824.3,5.00,000.00,028.1,026.5,000.0,036.5,029.7,15.5,0000.0,0000.80,0008.50,0000.13
2023-10-13 02:40:00,SystemResetWarning,0824.4,5.00,000.00,028.1,026.5,000.0,036.5,029.7,15.6,0000.0,0000.76,0008.35,0000.12
2023-10-13 02:41:00,SystemResetWarning,0824.3,5.00,000.00,028.1,026.5,000.0,036.5,029.7,15.6,0000.0,0000.77,0008.72,0000.12
2023-10-13 02:42:00,SystemResetWarning,0824.4,5.00,000.00,028.1,026.5,000.0,036.5,029.7,15.6,0000.0,0000.78,0008.57,0000.12
2023-10-13 02:43:00,SystemResetWarning,0824.4,5.00,000.00,028.1,026.5,000.0,036.5,029.7,15.6,0000.0,0000.66,0007.13,0000.12
2023-10-13 02:44:00,SystemResetWarning,0824.4,5.00,000.00,028.1,026.5,000.0,036.5,029.7,15.6,0000.0,0000.63,0006.11,0000.12
2023-10-13 02:45:00,SystemResetWarning,0824.5,5.00,000.00,028.1,026.5,000.0,036.5,029.7,15.7,0000.0,0000.64,0005.96,0000.12
2023-10-13 02:46:00,SystemResetWarning,0824.5,4.99,000.00,028.1,026.5,000.0,036.5,029.7,15.7,0000.0,0000.64,0006.12,0000.13
2023-10-13 02:47:00,SystemResetWarning,0824.5,4.99,000.00,028.1,026.5,000.0,036.5,029.7,15.7,0000.0,0000.66,0006.49,0000.13
2023-10-13 02:48:00,SystemResetWarning,0824.5,5.00,000.00,028.1,026.5,000.0,036.5,029.7,15.7,0000.0,0000.65,0006.31,0000.12
2023-10-13 02:49:00,SystemResetWarning,0824.5,5.00,000.00,028.1,026.5,000.0,036.5,029.7,15.6,0000.0,0000.63,0006.13,0000.12
2023-10-13 02:50:00,SystemResetWarning,0824.6,5.00,000.00,028.1,026.5,000.0,036.5,029.7,15.6,0000.0,0000.66,0006.36,0000.13
2023-10-13 02:51:00,SystemResetWarning,0824.6,5.00,000.00,028.1,026.5,000.0,036.5,029.7,15.5,0000.0,0000.66,0005.32,0000.13
2023-10-13 02:52:00,SystemResetWarning,0824.5,5.00,000.00,028.0,026.5,000.0,036.5,029.7,15.4,0000.0,0000.63,0004.13,0000.13
2023-10-13 02:53:00,SystemResetWarning,0824.6,4.99,000.00,028.1,026.5,000.0,036.5,029.7,15.4,0000.0,0000.63,0003.68,0000.13
2023-10-13 02:54:00,SystemResetWarning,0824.7,4.99,000.00,028.1,026.5,000.0,036.5,029.7,15.3,0000.0,0000.61,0003.77,0000.13
2023-10-13 02:55:00,SystemResetWarning,0824.7,4.99,000.00,028.1,026.5,000.0,036.5,029.7,15.3,0000.0,0000.61,0006.47,0000.13
2023-10-13 02:56:00,SystemResetWarning,0824.7,5.00,000.00,028.0,026.5,000.0,036.5,029.7,15.3,0000.0,0000.57,0006.43,0000.13
2023-10-13 02:57:00,SystemResetWarning,0824.7,5.00,000.00,028.0,026.5,000.0,036.5,029.7,15.2,0000.0,0000.58,0006.31,0000.13
2023-10-13 02:58:00,SystemResetWarning,0824.7,5.01,000.00,028.0,026.5,000.0,036.5,029.7,15.2,0000.0,0000.54,0005.58,0000.13
2023-10-13 02:59:00,SystemResetWarning,0824.7,5.00,000.00,028.1,026.5,000.0,036.5,029.7,15.1,0000.0,0000.54,0005.55,0000.14
